Time,TemperatureF,DewpointF,PressureIn,WindDirection,WindDirectionDegrees,WindSpeedMPH,WindSpeedGustMPH,Humidity,HourlyPrecipIn,Conditions,Clouds,dailyrainin,SolarRadiationWatts/m^2,SoftwareType,DateUTC
2013-06-04 00:02:00,44.0,41.0,-100.00,NE,52,4.0,7.0,89,0.01,,,0.68,0.000000,,2013-06-04 06:02:00,
2013-06-04 00:12:00,44.0,41.0,-100.00,NE,52,4.0,7.0,89,0.01,,,0.68,0.000000,,2013-06-04 06:12:00,
2013-06-04 00:22:00,44.0,41.0,-100.00,NE,52,4.0,7.0,89,0.01,,,0.68,0.000000,,2013-06-04 06:22:00,
2013-06-04 00:30:00,43.0,41.0,-100.00,ENE,69,4.0,6.0,91,0.01,,,0.69,0.000000,,2013-06-04 06:30:00,
2013-06-04 00:52:00,43.0,41.0,-100.00,ENE,69,4.0,6.0,91,0.01,,,0.69,0.000000,,2013-06-04 06:52:00,
2013-06-04 01:02:00,43.0,41.0,-100.00,ENE,69,4.0,6.0,91,0.01,,,0.69,0.000000,,2013-06-04 07:02:00,
2013-06-04 01:12:00,43.0,41.0,-100.00,ENE,69,4.0,6.0,91,0.01,,,0.69,0.000000,,2013-06-04 07:12:00,
2013-06-04 01:22:00,43.0,41.0,-100.00,ENE,69,4.0,6.0,91,0.01,,,0.69,0.000000,,2013-06-04 07:22:00,
2013-06-04 01:30:00,43.0,40.0,-100.00,ENE,68,4.0,9.0,88,0.01,,,0.68,0.000000,,2013-06-04 07:30:00,
2013-06-04 01:52:00,43.0,40.0,-100.00,ENE,68,4.0,9.0,88,0.01,,,0.68,0.000000,,2013-06-04 07:52:00,
2013-06-04 02:02:00,43.0,40.0,-100.00,ENE,68,4.0,9.0,88,0.01,,,0.68,0.000000,,2013-06-04 08:02:00,
2013-06-04 02:12:00,43.0,40.0,-100.00,ENE,68,4.0,9.0,88,0.01,,,0.68,0.000000,,2013-06-04 08:12:00,
2013-06-04 02:22:00,43.0,40.0,-100.00,ENE,68,4.0,9.0,88,0.01,,,0.68,0.000000,,2013-06-04 08:22:00,
2013-06-04 02:30:00,42.0,37.0,-100.00,NW,304,5.0,13.0,83,0.01,,,0.64,0.000000,,2013-06-04 08:30:00,
2013-06-04 02:52:00,42.0,37.0,-100.00,NW,304,5.0,13.0,83,0.01,,,0.64,0.000000,,2013-06-04 08:52:00,
2013-06-04 03:02:00,42.0,37.0,-100.00,NW,304,5.0,13.0,83,0.01,,,0.64,0.000000,,2013-06-04 09:02:00,
2013-06-04 03:12:00,42.0,37.0,-100.00,NW,304,5.0,13.0,83,0.01,,,0.64,0.000000,,2013-06-04 09:12:00,
2013-06-04 03:22:00,42.0,37.0,-100.00,NW,304,5.0,13.0,83,0.01,,,0.64,0.000000,,2013-06-04 09:22:00,
2013-06-04 03:30:00,41.0,39.0,-100.00,West,262,2.0,7.0,91,0.00,,,0.56,0.000000,,2013-06-04 09:30:00,
2013-06-04 03:53:00,41.0,39.0,-100.00,West,262,2.0,7.0,91,0.00,,,0.56,0.000000,,2013-06-04 09:53:00,
2013-06-04 04:02:00,41.0,39.0,-100.00,West,262,2.0,7.0,91,0.00,,,0.56,0.000000,,2013-06-04 10:02:00,
2013-06-04 04:12:00,41.0,39.0,-100.00,West,262,2.0,7.0,91,0.00,,,0.56,0.000000,,2013-06-04 10:12:00,
2013-06-04 04:22:00,41.0,39.0,-100.00,West,262,2.0,7.0,91,0.00,,,0.56,0.000000,,2013-06-04 10:22:00,
2013-06-04 04:30:00,39.0,37.0,-100.00,WSW,245,2.0,3.0,94,0.00,,,-99.99,0.000000,,2013-06-04 10:30:00,
2013-06-04 04:53:00,39.0,37.0,-100.00,WSW,245,2.0,3.0,94,0.00,,,-99.99,0.000000,,2013-06-04 10:53:00,
2013-06-04 05:02:00,39.0,37.0,-100.00,WSW,245,2.0,3.0,94,0.00,,,-99.99,0.000000,,2013-06-04 11:02:00,
2013-06-04 05:12:00,39.0,37.0,-100.00,WSW,245,2.0,3.0,94,0.00,,,-99.99,0.000000,,2013-06-04 11:12:00,
2013-06-04 05:22:00,39.0,37.0,-100.00,WSW,245,2.0,3.0,94,0.00,,,-99.99,0.000000,,2013-06-04 11:22:00,
2013-06-04 05:30:00,35.0,34.0,-100.00,WNW,290,2.0,3.0,96,0.00,,,0.40,0.000000,,2013-06-04 11:30:00,
2013-06-04 05:52:00,35.0,34.0,-100.00,WNW,290,2.0,3.0,96,0.00,,,0.40,0.000000,,2013-06-04 11:52:00,
2013-06-04 06:02:00,35.0,34.0,-100.00,WNW,290,2.0,3.0,96,0.00,,,0.40,0.000000,,2013-06-04 12:02:00,
2013-06-04 06:12:00,35.0,34.0,-100.00,WNW,290,2.0,3.0,96,0.00,,,0.40,0.000000,,2013-06-04 12:12:00,
2013-06-04 06:22:00,35.0,34.0,-100.00,WNW,290,2.0,3.0,96,0.00,,,0.40,0.000000,,2013-06-04 12:22:00,
2013-06-04 06:30:00,39.0,38.0,-100.00,WSW,250,3.0,4.0,98,0.00,,,0.37,22.000000,,2013-06-04 12:30:00,
2013-06-04 06:52:00,39.0,38.0,-100.00,WSW,250,3.0,4.0,98,0.00,,,0.37,22.000000,,2013-06-04 12:52:00,
2013-06-04 07:02:00,39.0,38.0,-100.00,WSW,250,3.0,4.0,98,0.00,,,0.37,22.000000,,2013-06-04 13:02:00,
2013-06-04 07:12:00,39.0,38.0,-100.00,WSW,250,3.0,4.0,98,0.00,,,0.37,22.000000,,2013-06-04 13:12:00,
2013-06-04 07:22:00,39.0,38.0,-100.00,WSW,250,3.0,4.0,98,0.00,,,0.37,22.000000,,2013-06-04 13:22:00,
2013-06-04 07:30:00,44.0,41.0,-100.00,NW,321,3.0,4.0,89,0.00,,,0.36,158.000000,,2013-06-04 13:30:00,
2013-06-04 07:52:00,44.0,41.0,-100.00,NW,321,3.0,4.0,89,0.00,,,0.36,158.000000,,2013-06-04 13:52:00,
2013-06-04 08:02:00,44.0,41.0,-100.00,NW,321,3.0,4.0,89,0.00,,,0.36,158.000000,,2013-06-04 14:02:00,
2013-06-04 08:12:00,44.0,41.0,-100.00,NW,321,3.0,4.0,89,0.00,,,0.36,158.000000,,2013-06-04 14:12:00,
2013-06-04 08:22:00,44.0,41.0,-100.00,NW,321,3.0,4.0,89,0.00,,,0.36,158.000000,,2013-06-04 14:22:00,
2013-06-04 08:30:00,50.0,42.0,-100.00,ENE,69,3.0,5.0,74,0.00,,,0.35,338.000000,,2013-06-04 14:30:00,
2013-06-04 08:52:00,50.0,42.0,-100.00,ENE,69,3.0,5.0,74,0.00,,,0.35,338.000000,,2013-06-04 14:52:00,
2013-06-04 09:02:00,50.0,42.0,-100.00,ENE,69,3.0,5.0,74,0.00,,,0.35,338.000000,,2013-06-04 15:02:00,
2013-06-04 09:12:00,50.0,42.0,-100.00,ENE,69,3.0,5.0,74,0.00,,,0.35,338.000000,,2013-06-04 15:12:00,
2013-06-04 09:22:00,50.0,42.0,-100.00,ENE,69,3.0,5.0,74,0.00,,,0.35,338.000000,,2013-06-04 15:22:00,
2013-06-04 09:30:00,51.0,39.0,-100.00,ESE,103,8.0,13.0,63,0.00,,,0.34,567.000000,,2013-06-04 15:30:00,
2013-06-04 09:53:00,51.0,39.0,-100.00,ESE,103,8.0,13.0,63,0.00,,,0.34,567.000000,,2013-06-04 15:53:00,
2013-06-04 10:03:00,51.0,39.0,-100.00,ESE,103,8.0,13.0,63,0.00,,,0.34,567.000000,,2013-06-04 16:03:00,
2013-06-04 10:12:00,51.0,39.0,-100.00,ESE,103,8.0,13.0,63,0.00,,,0.34,567.000000,,2013-06-04 16:12:00,
2013-06-04 10:22:00,51.0,39.0,-100.00,ESE,103,8.0,13.0,63,0.00,,,0.34,567.000000,,2013-06-04 16:22:00,
2013-06-04 10:30:00,52.0,38.0,-100.00,ENE,74,7.0,13.0,59,0.00,,,0.34,577.000000,,2013-06-04 16:30:00,
2013-06-04 10:53:00,52.0,38.0,-100.00,ENE,74,7.0,13.0,59,0.00,,,0.34,577.000000,,2013-06-04 16:53:00,
2013-06-04 11:02:00,52.0,38.0,-100.00,ENE,74,7.0,13.0,59,0.00,,,0.34,577.000000,,2013-06-04 17:02:00,
2013-06-04 11:12:00,52.0,38.0,-100.00,ENE,74,7.0,13.0,59,0.00,,,0.34,577.000000,,2013-06-04 17:12:00,
2013-06-04 11:22:00,52.0,38.0,-100.00,ENE,74,7.0,13.0,59,0.00,,,0.34,577.000000,,2013-06-04 17:22:00,
2013-06-04 11:30:00,50.0,34.0,-100.00,East,91,9.0,15.0,54,0.00,,,0.34,749.000000,,2013-06-04 17:30:00,
2013-06-04 11:52:00,50.0,34.0,-100.00,East,91,9.0,15.0,54,0.00,,,0.34,749.000000,,2013-06-04 17:52:00,
2013-06-04 12:02:00,50.0,34.0,-100.00,East,91,9.0,15.0,54,0.00,,,0.34,749.000000,,2013-06-04 18:02:00,
2013-06-04 12:12:00,50.0,34.0,-100.00,East,91,9.0,15.0,54,0.00,,,0.34,749.000000,,2013-06-04 18:12:00,
2013-06-04 12:22:00,50.0,34.0,-100.00,East,91,9.0,15.0,54,0.00,,,0.34,749.000000,,2013-06-04 18:22:00,
2013-06-04 12:30:00,52.0,38.0,-100.00,ESE,109,8.0,15.0,59,0.00,,,0.33,431.000000,,2013-06-04 18:30:00,
2013-06-04 12:52:00,52.0,38.0,-100.00,ESE,109,8.0,15.0,59,0.00,,,0.33,431.000000,,2013-06-04 18:52:00,
2013-06-04 13:02:00,52.0,38.0,-100.00,ESE,109,8.0,15.0,59,0.00,,,0.33,431.000000,,2013-06-04 19:02:00,
2013-06-04 13:12:00,52.0,38.0,-100.00,ESE,109,8.0,15.0,59,0.00,,,0.33,431.000000,,2013-06-04 19:12:00,
2013-06-04 13:22:00,52.0,38.0,-100.00,ESE,109,8.0,15.0,59,0.00,,,0.33,431.000000,,2013-06-04 19:22:00,
2013-06-04 13:30:00,54.0,39.0,-100.00,East,88,8.0,12.0,57,0.00,,,0.32,658.000000,,2013-06-04 19:30:00,
2013-06-04 13:52:00,54.0,39.0,-100.00,East,88,8.0,12.0,57,0.00,,,0.32,658.000000,,2013-06-04 19:52:00,
2013-06-04 14:02:00,54.0,39.0,-100.00,East,88,8.0,12.0,57,0.00,,,0.32,658.000000,,2013-06-04 20:02:00,
2013-06-04 14:12:00,54.0,39.0,-100.00,East,88,8.0,12.0,57,0.00,,,0.32,658.000000,,2013-06-04 20:12:00,
2013-06-04 14:22:00,54.0,39.0,-100.00,East,88,8.0,12.0,57,0.00,,,0.32,658.000000,,2013-06-04 20:22:00,
2013-06-04 14:30:00,55.0,39.0,-100.00,SE,126,5.0,14.0,54,0.00,,,0.28,572.000000,,2013-06-04 20:30:00,
2013-06-04 14:53:00,55.0,39.0,-100.00,SE,126,5.0,14.0,54,0.00,,,0.28,572.000000,,2013-06-04 20:53:00,
2013-06-04 15:02:00,55.0,39.0,-100.00,SE,126,5.0,14.0,54,0.00,,,0.28,572.000000,,2013-06-04 21:02:00,
2013-06-04 15:12:00,55.0,39.0,-100.00,SE,126,5.0,14.0,54,0.00,,,0.28,572.000000,,2013-06-04 21:12:00,
2013-06-04 15:22:00,55.0,39.0,-100.00,SE,126,5.0,14.0,54,0.00,,,0.28,572.000000,,2013-06-04 21:22:00,
2013-06-04 15:30:00,54.0,38.0,-100.00,NNE,31,5.0,11.0,54,0.00,,,0.24,439.000000,,2013-06-04 21:30:00,
2013-06-04 15:53:00,54.0,38.0,-100.00,NNE,31,5.0,11.0,54,0.00,,,0.24,439.000000,,2013-06-04 21:53:00,
2013-06-04 16:02:00,54.0,38.0,-100.00,NNE,31,5.0,11.0,54,0.00,,,0.24,439.000000,,2013-06-04 22:02:00,
2013-06-04 16:12:00,54.0,38.0,-100.00,NNE,31,5.0,11.0,54,0.00,,,0.24,439.000000,,2013-06-04 22:12:00,
2013-06-04 16:22:00,54.0,38.0,-100.00,NNE,31,5.0,11.0,54,0.00,,,0.24,439.000000,,2013-06-04 22:22:00,
2013-06-04 16:30:00,57.0,38.0,-100.00,East,90,3.0,10.0,48,0.00,,,0.11,481.000000,,2013-06-04 22:30:00,
2013-06-04 16:52:00,57.0,38.0,-100.00,East,90,3.0,10.0,48,0.00,,,0.11,481.000000,,2013-06-04 22:52:00,
2013-06-04 17:02:00,57.0,38.0,-100.00,East,90,3.0,10.0,48,0.00,,,0.11,481.000000,,2013-06-04 23:02:00,
2013-06-04 17:12:00,57.0,38.0,-100.00,East,90,3.0,10.0,48,0.00,,,0.11,481.000000,,2013-06-04 23:12:00,
2013-06-04 17:22:00,57.0,38.0,-100.00,East,90,3.0,10.0,48,0.00,,,0.11,481.000000,,2013-06-04 23:22:00,
2013-06-04 17:30:00,59.0,39.0,-100.00,East,91,6.0,10.0,48,0.00,,,-99.99,595.000000,,2013-06-04 23:30:00,
2013-06-04 17:52:00,59.0,39.0,-100.00,East,91,6.0,10.0,48,0.00,,,-99.99,595.000000,,2013-06-04 23:52:00,
2013-06-04 18:02:00,59.0,39.0,-100.00,East,91,6.0,10.0,48,0.00,,,-99.99,595.000000,,2013-06-05 00:02:00,
2013-06-04 18:12:00,59.0,39.0,-100.00,East,91,6.0,10.0,48,0.00,,,-99.99,595.000000,,2013-06-05 00:12:00,
2013-06-04 18:22:00,59.0,39.0,-100.00,East,91,6.0,10.0,48,0.00,,,-99.99,595.000000,,2013-06-05 00:22:00,
2013-06-04 18:30:00,59.0,38.0,-100.00,East,100,5.0,11.0,46,0.00,,,0.05,639.000000,,2013-06-05 00:30:00,
2013-06-04 18:52:00,59.0,38.0,-100.00,East,100,5.0,11.0,46,0.00,,,0.05,639.000000,,2013-06-05 00:52:00,
2013-06-04 19:02:00,59.0,38.0,-100.00,East,100,5.0,11.0,46,0.00,,,0.05,639.000000,,2013-06-05 01:02:00,
2013-06-04 19:12:00,59.0,38.0,-100.00,East,100,5.0,11.0,46,0.00,,,0.05,639.000000,,2013-06-05 01:12:00,
2013-06-04 19:22:00,59.0,38.0,-100.00,East,100,5.0,11.0,46,0.00,,,0.05,639.000000,,2013-06-05 01:22:00,
2013-06-04 19:30:00,57.0,37.0,-100.00,NE,52,6.0,10.0,47,0.00,,,0.05,436.000000,,2013-06-05 01:30:00,
2013-06-04 19:52:00,57.0,37.0,-100.00,NE,52,6.0,10.0,47,0.00,,,0.05,436.000000,,2013-06-05 01:52:00,
2013-06-04 20:02:00,57.0,37.0,-100.00,NE,52,6.0,10.0,47,0.00,,,0.05,436.000000,,2013-06-05 02:02:00,
2013-06-04 20:12:00,57.0,37.0,-100.00,NE,52,6.0,10.0,47,0.00,,,0.05,436.000000,,2013-06-05 02:12:00,
2013-06-04 20:22:00,57.0,37.0,-100.00,NE,52,6.0,10.0,47,0.00,,,0.05,436.000000,,2013-06-05 02:22:00,
2013-06-04 20:30:00,54.0,37.0,-100.00,NE,48,7.0,11.0,52,0.00,,,0.05,212.000000,,2013-06-05 02:30:00,
2013-06-04 20:52:00,54.0,37.0,-100.00,NE,48,7.0,11.0,52,0.00,,,0.05,212.000000,,2013-06-05 02:52:00,
2013-06-04 21:02:00,54.0,37.0,-100.00,NE,48,7.0,11.0,52,0.00,,,0.05,212.000000,,2013-06-05 03:02:00,
2013-06-04 21:12:00,54.0,37.0,-100.00,NE,48,7.0,11.0,52,0.00,,,0.05,212.000000,,2013-06-05 03:12:00,
2013-06-04 21:22:00,54.0,37.0,-100.00,NE,48,7.0,11.0,52,0.00,,,0.05,212.000000,,2013-06-05 03:22:00,
2013-06-04 21:30:00,49.0,38.0,-100.00,East,80,6.0,11.0,65,0.00,,,0.05,13.000000,,2013-06-05 03:30:00,
2013-06-04 21:53:00,49.0,38.0,-100.00,East,80,6.0,11.0,65,0.00,,,0.05,13.000000,,2013-06-05 03:53:00,
2013-06-04 22:02:00,49.0,38.0,-100.00,East,80,6.0,11.0,65,0.00,,,0.05,13.000000,,2013-06-05 04:02:00,
2013-06-04 22:13:00,49.0,38.0,-100.00,East,80,6.0,11.0,65,0.00,,,0.05,13.000000,,2013-06-05 04:13:00,
2013-06-04 22:22:00,49.0,38.0,-100.00,East,80,6.0,11.0,65,0.00,,,0.05,13.000000,,2013-06-05 04:22:00,
2013-06-04 22:30:00,46.0,36.0,-100.00,East,82,5.0,8.0,67,0.00,,,0.04,0.000000,,2013-06-05 04:30:00,
2013-06-04 22:53:00,46.0,36.0,-100.00,East,82,5.0,8.0,67,0.00,,,0.04,0.000000,,2013-06-05 04:53:00,
2013-06-04 23:02:00,46.0,36.0,-100.00,East,82,5.0,8.0,67,0.00,,,0.04,0.000000,,2013-06-05 05:02:00,
2013-06-04 23:12:00,46.0,36.0,-100.00,East,82,5.0,8.0,67,0.00,,,0.04,0.000000,,2013-06-05 05:12:00,
2013-06-04 23:22:00,46.0,36.0,-100.00,East,82,5.0,8.0,67,0.00,,,0.04,0.000000,,2013-06-05 05:22:00,
2013-06-04 23:30:00,41.0,37.0,-100.00,West,268,2.0,5.0,85,0.00,,,0.03,0.000000,,2013-06-05 05:30:00,
2013-06-04 23:52:00,41.0,37.0,-100.00,West,268,2.0,5.0,85,0.00,,,0.03,0.000000,,2013-06-05 05:52:00,